[[{"header":{"parameterUnit":"m.s-1","parameterCategory":1,"la1":30.2991,"la2":30.254,"lo1":-89.0895,"lo2":-89.0444,"dy":0.0017,"dx":0.0017,"nx":28,"ny":28,"refTime":"2025-03-16T21:00:00:Z","depth":0,"parameterNumber":2,"parameterNumberName":"U-component_of_WINDS"},"data":[0,0,0,0,0,0,0,0,0,0,0,0,0,0,0,0,0,0,0,0,0,0,0,0,0,0,0,0,0,0,0,0,0,0,0,0,0,0,0,0,0,0,0,0,0,0,0,0,0,0,0,0,0,0,0,0,0,0,0.0863,0.0863,0,0.0827,0.0826,0.0826,0.0791,0.0791,0.079,0.079,0.0753,0.0753,0.0752,0,0,0,0,0,0,0,0,0,0,0,0,0,0.0903,0.0903,0.0863,0.0862,0.0862,0.0827,0.0826,0.0826,0.0791,0.0791,0.079,0.079,0.0754,0.0753,0.0752,0,0,0,0,0,0,0,0,0,0,0,0,0,0.0878,0.0903,0.0863,0.0841,0.0838,0.0827,0.0826,0.0825,0.0791,0.0791,0.079,0.079,0.0754,0.0753,0.0752,0.076,0,0,0.075,0.0749,0,0,0,0,0,0,0,0,0.088,0.0877,0.0844,0.0842,0.0839,0.0813,0.0827,0.0804,0.0792,0.0809,0.079,0.0789,0.0774,0.0771,0.0766,0.0758,0.0757,0.075,0.0749,0.0749,0.0748,0,0,0,0,0,0,0,0.0882,0.0878,0.0849,0.0844,0.0841,0.0833,0.0828,0.0822,0.0796,0.0808,0.0805,0.0801,0.0772,0.0767,0.0765,0.0756,0.075,0.0749,0.0748,0.0748,0.0753,0.0754,0,0,0,0,0,0,0.0887,0.088,0.085,0.0847,0.0858,0.0832,0.0828,0.0822,0.0796,0.0791,0.0802,0.08,0.0769,0.0766,0.0763,0.0771,0.0749,0.0748,0.0747,0.0753,0.0754,0.0754,0,0,0,0,0,0,0.0888,0.0884,0.0851,0.0863,0.0858,0.0832,0.0826,0.0822,0.0816,0.0791,0.0786,0.0801,0.0768,0.0765,0.0761,0.0769,0.0747,0.0747,0.0752,0.0753,0.0754,0.0786,0,0,0,0,0,0,0.0889,0.0885,0.0887,0.0863,0.0858,0.0849,0.0827,0.0821,0.0815,0.0812,0.0789,0.0785,0.0767,0.0763,0.076,0.0768,0.0746,0.0751,0.0752,0.0754,0.0784,0.0788,0.0791,0,0,0,0,0,0.089,0.0898,0.0888,0.0884,0.086,0.085,0.0847,0.0826,0.0815,0.0818,0.0802,0.0786,0.0769,0.0762,0.076,0.0767,0.0751,0.0752,0.0753,0.0783,0.0787,0.0791,0,0,0,0,0,0,0.0924,0.0895,0.0883,0.0883,0.0869,0.0844,0.0847,0.0832,0.0821,0.0819,0.0794,0.0789,0.0788,0.0777,0.0771,0.0773,0.0757,0.0758,0.0781,0.0785,0.0788,0.0791,0.0745,0,0,0,0,0,0.0932,0.0926,0.09,0.0903,0.0896,0.0873,0.0867,0.0853,0.0838,0.0832,0.0816,0.0802,0.0793,0.0788,0.0779,0.0782,0.0777,0.0786,0.0789,0.0793,0.0794,0.0795,0.0799,0.0759,0.0759,0.0759,0,0,0.0947,0.093,0.0928,0.0909,0.0897,0.0891,0.0868,0.0863,0.0859,0.0831,0.0827,0.0814,0.0797,0.0797,0.0797,0.0788,0.0804,0.0794,0.0797,0.0797,0.0797,0.0801,0.0804,0.076,0.076,0.076,0,0,0.0972,0.0959,0.0959,0.0947,0.0929,0.0913,0.0913,0.0891,0.0881,0.0876,0.0855,0.085,0.0836,0.0825,0.0817,0.0838,0.0823,0.0836,0.0855,0.0856,0.0859,0.0862,0.087,0.0873,0.0837,0.0837,0.0837,0,0.0994,0.0984,0.0962,0.0958,0.095,0.0924,0.0925,0.0915,0.0894,0.089,0.088,0.0862,0.0849,0.0846,0.0851,0.0846,0.0845,0.0838,0.086,0.0863,0.0865,0.0872,0.0875,0.0839,0.0839,0.0838,0.0838,0,0.1012,0.1006,0.1009,0.0989,0.0982,0.098,0.0958,0.0953,0.0939,0.0924,0.092,0.0903,0.089,0.0888,0.0874,0.0883,0.0878,0.0865,0.0849,0.0871,0.0877,0.088,0.0841,0.0841,0.084,0.084,0,0,0.1058,0.1026,0.1027,0.1018,0.0996,0.0991,0.0988,0.0975,0.0972,0.0958,0.0956,0.0944,0.0932,0.0923,0.0908,0.0909,0.0927,0.0896,0.0895,0.0902,0.0936,0.0947,0.095,0.0917,0.0917,0.0917,0.0938,0,0.108,0.1073,0.1053,0.1053,0.1047,0.1022,0.1019,0.1006,0.0992,0.0985,0.097,0.0962,0.0946,0.0941,0.0941,0.0925,0.0934,0.0923,0.0914,0.0914,0.092,0.0954,0.0965,0.0985,0.094,0.0941,0.0941,0,0.1105,0.1093,0.1092,0.107,0.1066,0.1065,0.1051,0.1045,0.1029,0.1018,0.1009,0.0992,0.0988,0.0972,0.0967,0.096,0.0955,0.0947,0.0947,0.0946,0.0929,0.0954,0.0991,0.0994,0.0944,0.0944,0.0944,0,0.1139,0.1122,0.112,0.1113,0.1087,0.1086,0.1075,0.1058,0.1052,0.104,0.1036,0.1024,0.1017,0.1009,0.0989,0.0979,0.0986,0.0968,0.0977,0.0978,0.098,0.0981,0.1018,0.0976,0.0976,0.0976,0.0976,0,0.1165,0.1166,0.1135,0.1133,0.1133,0.111,0.111,0.1097,0.1082,0.1078,0.1056,0.1052,0.1026,0.1019,0.1004,0.1002,0.0999,0.0991,0.0987,0.0993,0.0994,0.099,0.0989,0.0977,0.0977,0.0977,0.0977,0,0.1204,0.1183,0.1179,0.1154,0.1148,0.1149,0.1128,0.1126,0.111,0.1105,0.1103,0.1079,0.107,0.1049,0.1035,0.1025,0.1027,0.1019,0.1032,0.103,0.104,0.104,0.1077,0.108,0.1037,0.1037,0.1037,0,0.1223,0.1223,0.1198,0.1193,0.1183,0.1176,0.1169,0.1146,0.1139,0.1121,0.1121,0.111,0.1101,0.1088,0.107,0.1059,0.1051,0.1064,0.1049,0.1056,0.1052,0.1052,0.1052,0.1068,0.1069,0.1069,0.107,0,0.1258,0.1248,0.1239,0.1226,0.1218,0.1207,0.1195,0.1192,0.1166,0.116,0.1151,0.1143,0.1129,0.1119,0.1105,0.1094,0.1078,0.1074,0.1076,0.1083,0.1091,0.1087,0.1042,0.1074,0.1073,0.1073,0.1073,0.1073,0.1288,0.1286,0.1269,0.1259,0.1247,0.1236,0.1233,0.1217,0.1209,0.1195,0.1182,0.1174,0.1158,0.1137,0.1127,0.1121,0.1113,0.1115,0.1116,0.1117,0.112,0.1091,0.1119,0.1118,0.1118,0.1118,0.1118,0,0.1322,0.131,0.1301,0.1285,0.1277,0.1262,0.1247,0.1242,0.1236,0.1222,0.1213,0.1202,0.1192,0.1173,0.1161,0.116,0.1152,0.1158,0.1158,0.1156,0.1128,0.1128,0.1164,0.1164,0.1164,0.1164,0.1164,0.1164,0.134,0.1337,0.1324,0.1316,0.1303,0.1295,0.1288,0.1278,0.1266,0.1255,0.1247,0.1234,0.1218,0.1205,0.1196,0.119,0.1188,0.1196,0.1188,0.1162,0.1158,0.1154,0.1154,0.1195,0.1195,0.1217,0.1217,0.1217]},{"header":{"parameterUnit":"m.s-1","parameterCategory":1,"la1":30.2991,"la2":30.254,"lo1":-89.0895,"lo2":-89.0444,"dy":0.0017,"dx":0.0017,"nx":28,"ny":28,"refTime":"2025-03-16T21:00:00:Z","depth":0,"parameterNumber":3,"parameterNumberName":"V-component_of_WINDS"},"data":[0,0,0,0,0,0,0,0,0,0,0,0,0,0,0,0,0,0,0,0,0,0,0,0,0,0,0,0,0,0,0,0,0,0,0,0,0,0,0,0,0,0,0,0,0,0,0,0,0,0,0,0,0,0,0,0,0,0,-0.0773,-0.0774,0,-0.0883,-0.0884,-0.0885,-0.094,-0.094,-0.094,-0.094,-0.1057,-0.106,-0.1063,0,0,0,0,0,0,0,0,0,0,0,0,0,-0.0615,-0.0617,-0.0773,-0.0774,-0.0776,-0.0883,-0.0884,-0.0886,-0.094,-0.094,-0.094,-0.094,-0.1056,-0.1059,-0.1063,0,0,0,0,0,0,0,0,0,0,0,0,0,-0.07,-0.0618,-0.0773,-0.0816,-0.0821,-0.0882,-0.0884,-0.0886,-0.094,-0.094,-0.094,-0.094,-0.1054,-0.1059,-0.1064,-0.1092,0,0,-0.1078,-0.108,0,0,0,0,0,0,0,0,-0.0695,-0.0706,-0.0808,-0.0813,-0.0818,-0.0898,-0.0871,-0.0955,-0.094,-0.0895,-0.094,-0.094,-0.1004,-0.1013,-0.1034,-0.1098,-0.1103,-0.1078,-0.1081,-0.1083,-0.1084,0,0,0,0,0,0,0,-0.0689,-0.0701,-0.0817,-0.0809,-0.0816,-0.0831,-0.0843,-0.0887,-0.0948,-0.0899,-0.0903,-0.0915,-0.1007,-0.1029,-0.1037,-0.1104,-0.1078,-0.1082,-0.1085,-0.1087,-0.1199,-0.1199,0,0,0,0,0,0,-0.0675,-0.0696,-0.0813,-0.082,-0.0755,-0.0834,-0.0847,-0.0872,-0.0948,-0.0959,-0.0915,-0.0917,-0.1021,-0.1031,-0.1041,-0.108,-0.1083,-0.1087,-0.109,-0.1199,-0.1199,-0.1199,0,0,0,0,0,0,-0.0672,-0.0685,-0.0809,-0.0759,-0.0776,-0.0836,-0.0864,-0.0874,-0.0897,-0.096,-0.0972,-0.0926,-0.1021,-0.1035,-0.1079,-0.1085,-0.1089,-0.1094,-0.1198,-0.1199,-0.1199,-0.1158,0,0,0,0,0,0,-0.0667,-0.0684,-0.0694,-0.0759,-0.0778,-0.0843,-0.0864,-0.0877,-0.0904,-0.0908,-0.0973,-0.0984,-0.1022,-0.1072,-0.1084,-0.1091,-0.1097,-0.1198,-0.1198,-0.1199,-0.1159,-0.1157,-0.1155,0,0,0,0,0,-0.0661,-0.0679,-0.0695,-0.0708,-0.0792,-0.0844,-0.0855,-0.0897,-0.0904,-0.0916,-0.0957,-0.0982,-0.1082,-0.1076,-0.109,-0.1099,-0.1198,-0.1198,-0.1199,-0.116,-0.1157,-0.1155,0,0,0,0,0,0,-0.0615,-0.0688,-0.0706,-0.0745,-0.0788,-0.0853,-0.0869,-0.0893,-0.0935,-0.0937,-0.0989,-0.1004,-0.1044,-0.1076,-0.1068,-0.1131,-0.1143,-0.1146,-0.1108,-0.1106,-0.1104,-0.1096,-0.1101,0,0,0,0,0,-0.0609,-0.0643,-0.0706,-0.0735,-0.0755,-0.0808,-0.0832,-0.0861,-0.0907,-0.0926,-0.097,-0.1015,-0.1057,-0.1084,-0.1125,-0.1164,-0.118,-0.1177,-0.1175,-0.1173,-0.1175,-0.1199,-0.1199,-0.12,-0.12,-0.12,0,0,-0.0598,-0.0642,-0.0661,-0.0726,-0.0763,-0.0798,-0.0823,-0.0859,-0.0886,-0.0932,-0.0976,-0.101,-0.1064,-0.1106,-0.1127,-0.1134,-0.1178,-0.1174,-0.1171,-0.1175,-0.1199,-0.1199,-0.1199,-0.1201,-0.1201,-0.12,0,0,-0.0596,-0.0632,-0.066,-0.0695,-0.0749,-0.0785,-0.0791,-0.0853,-0.0876,-0.0922,-0.0957,-0.099,-0.1061,-0.1098,-0.1127,-0.1138,-0.1164,-0.115,-0.114,-0.1162,-0.1162,-0.1162,-0.1167,-0.1168,-0.1152,-0.1152,-0.1152,0,-0.0575,-0.0628,-0.0672,-0.0706,-0.0734,-0.0775,-0.0805,-0.0838,-0.0903,-0.0922,-0.0929,-0.1019,-0.1058,-0.111,-0.1112,-0.1134,-0.1144,-0.1143,-0.1158,-0.1159,-0.116,-0.1165,-0.1166,-0.115,-0.1151,-0.1151,-0.1151,0,-0.0601,-0.0637,-0.0654,-0.0714,-0.0744,-0.0776,-0.0825,-0.0851,-0.0877,-0.0912,-0.0958,-0.1007,-0.1059,-0.1073,-0.11,-0.1129,-0.1132,-0.1148,-0.1161,-0.1157,-0.1162,-0.1165,-0.1148,-0.1148,-0.1149,-0.1149,0,0,-0.0573,-0.0656,-0.0662,-0.069,-0.0752,-0.0782,-0.0816,-0.0866,-0.0887,-0.0931,-0.0962,-0.1021,-0.1036,-0.1068,-0.1099,-0.1118,-0.1125,-0.1133,-0.1135,-0.113,-0.1161,-0.1149,-0.115,-0.1142,-0.1143,-0.1143,-0.1157,0,-0.0579,-0.064,-0.068,-0.0726,-0.0761,-0.0801,-0.0831,-0.0873,-0.0907,-0.0942,-0.098,-0.1021,-0.1038,-0.1057,-0.1078,-0.112,-0.1132,-0.1119,-0.1173,-0.1174,-0.1158,-0.1153,-0.114,-0.115,-0.1159,-0.1159,-0.116,0,-0.0595,-0.0636,-0.0685,-0.0744,-0.076,-0.0786,-0.0835,-0.0868,-0.0918,-0.0941,-0.0976,-0.1008,-0.1047,-0.1056,-0.1111,-0.1102,-0.1126,-0.115,-0.1151,-0.1158,-0.1167,-0.116,-0.1155,-0.1156,-0.1164,-0.1163,-0.1163,0,-0.057,-0.0638,-0.0676,-0.0699,-0.0768,-0.0786,-0.0816,-0.0865,-0.0893,-0.0936,-0.0955,-0.1003,-0.103,-0.1067,-0.1111,-0.1114,-0.1162,-0.1175,-0.1184,-0.1183,-0.1193,-0.1192,-0.1191,-0.1207,-0.1207,-0.1207,-0.1207,0,-0.0573,-0.0602,-0.0665,-0.0689,-0.0722,-0.0769,-0.0801,-0.0835,-0.0878,-0.091,-0.0948,-0.0978,-0.1034,-0.1071,-0.1106,-0.1147,-0.1159,-0.118,-0.1189,-0.1176,-0.1174,-0.1193,-0.1194,-0.1208,-0.1208,-0.1208,-0.1208,0,-0.0551,-0.0595,-0.0639,-0.0701,-0.0717,-0.0739,-0.0793,-0.0818,-0.0853,-0.0893,-0.0905,-0.0962,-0.1007,-0.1055,-0.1117,-0.114,-0.118,-0.1193,-0.1163,-0.1168,-0.1174,-0.1173,-0.1187,-0.1191,-0.1204,-0.1203,-0.1203,0,-0.055,-0.0573,-0.0637,-0.066,-0.0689,-0.0726,-0.0754,-0.0801,-0.0829,-0.0887,-0.0905,-0.0953,-0.0994,-0.1065,-0.1112,-0.116,-0.1174,-0.1176,-0.1182,-0.1169,-0.1175,-0.1173,-0.1176,-0.1174,-0.1173,-0.1173,-0.1173,0,-0.0544,-0.0565,-0.0603,-0.0649,-0.0681,-0.072,-0.076,-0.0777,-0.0833,-0.0862,-0.0908,-0.094,-0.1002,-0.105,-0.1103,-0.1136,-0.1164,-0.117,-0.1175,-0.1163,-0.1145,-0.1155,-0.1158,-0.117,-0.117,-0.117,-0.1171,-0.1171,-0.0533,-0.0555,-0.0604,-0.0645,-0.068,-0.0717,-0.0743,-0.0782,-0.082,-0.0874,-0.09,-0.0946,-0.0996,-0.1071,-0.1103,-0.1141,-0.1149,-0.1156,-0.1158,-0.1158,-0.1156,-0.1138,-0.1151,-0.1151,-0.1151,-0.1151,-0.1151,0,-0.053,-0.0563,-0.06,-0.0655,-0.0688,-0.0709,-0.0755,-0.0782,-0.0821,-0.0865,-0.0904,-0.0957,-0.1004,-0.1054,-0.1104,-0.1125,-0.1139,-0.1137,-0.1136,-0.1143,-0.1145,-0.1136,-0.1124,-0.1124,-0.1124,-0.1124,-0.1124,-0.1124,-0.0532,-0.057,-0.0597,-0.0653,-0.0687,-0.0731,-0.0755,-0.079,-0.0825,-0.0882,-0.092,-0.0953,-0.1,-0.1053,-0.1097,-0.1111,-0.1128,-0.1122,-0.114,-0.1141,-0.1143,-0.1145,-0.1137,-0.1125,-0.1125,-0.1135,-0.1135,-0.1135]}]]